| time (UTC) | temp C | wind direction | speed KPH | gust KPH | rain 1hr cm | rain 24hr cm | rain mn cm | humidity % | barometer mb |
| 20260506204024 | 13 | 7 | 0.0 | 1.6 | 0.00 | 0.84 | 0.84 | 97 | 1013.1 |
| 20260506203044 | 13 | 0.0 | 0.0 | 0.00 | 0.84 | 0.84 | 97 | 1013.2 | |
| 20260506202045 | 14 | 0.0 | 0.0 | 0.00 | 0.84 | 0.84 | 96 | 1013.1 | |
| 20260506201024 | 14 | 7 | 0.0 | 1.6 | 0.00 | 0.84 | 0.84 | 96 | 1013.0 |
| 20260506200024 | 15 | 4 | 0.0 | 1.6 | 0.00 | 0.84 | 0.84 | 95 | 1012.9 |
| 20260506195024 | 15 | 0.0 | 0.0 | 0.00 | 0.84 | 0.84 | 95 | 1012.8 | |
| 20260506194044 | 15 | 13 | 0.0 | 1.6 | 0.00 | 0.84 | 0.84 | 94 | 1012.7 |
| 20260506193024 | 15 | 14 | 1.6 | 3.2 | 0.00 | 0.84 | 0.84 | 94 | 1012.5 |
| 20260506192023 | 16 | 14 | 1.6 | 3.2 | 0.00 | 0.84 | 0.84 | 93 | 1012.2 |
| 20260506191024 | 16 | 16 | 0.0 | 3.2 | 0.00 | 0.84 | 0.84 | 92 | 1012.2 |
| 20260506190024 | 16 | 22 | 1.6 | 3.2 | 0.00 | 0.84 | 0.84 | 91 | 1012.1 |
| 20260506185024 | 16 | 16 | 1.6 | 3.2 | 0.00 | 0.84 | 0.84 | 89 | 1012.0 |
| 20260506184024 | 16 | 20 | 1.6 | 3.2 | 0.00 | 0.84 | 0.84 | 88 | 1011.9 |
| 20260506183044 | 16 | 21 | 1.6 | 4.8 | 0.00 | 0.84 | 0.84 | 88 | 1011.7 |
| 20260506182024 | 16 | 23 | 1.6 | 4.8 | 0.00 | 0.84 | 0.84 | 88 | 1011.7 |
| 20260506181023 | 16 | 30 | 1.6 | 3.2 | 0.00 | 0.84 | 0.84 | 89 | 1011.9 |
| 20260506180024 | 16 | 30 | 1.6 | 3.2 | 0.00 | 0.84 | 0.84 | 90 | 1011.8 |
| 20260506175024 | 16 | 12 | 0.0 | 3.2 | 0.00 | 0.84 | 0.84 | 90 | 1011.8 |
| 20260506174024 | 16 | 28 | 3.2 | 6.4 | 0.00 | 0.84 | 0.84 | 91 | 1011.6 |
| 20260506173024 | 16 | 12 | 1.6 | 3.2 | 0.00 | 0.84 | 0.84 | 93 | 1011.6 |
| 20260506172024 | 16 | 34 | 1.6 | 4.8 | 0.00 | 0.84 | 0.84 | 93 | 1011.7 |
| 20260506171044 | 16 | 52 | 1.6 | 4.8 | 0.00 | 0.84 | 0.84 | 92 | 1011.7 |
| 20260506170024 | 16 | 18 | 1.6 | 3.2 | 0.00 | 0.84 | 0.84 | 93 | 1011.7 |
| 20260506165024 | 16 | 19 | 1.6 | 4.8 | 0.00 | 0.84 | 0.84 | 92 | 1011.7 |
| 20260506164023 | 16 | 41 | 3.2 | 6.4 | 0.00 | 0.84 | 0.84 | 93 | 1011.4 |
| 20260506163023 | 17 | 53 | 1.6 | 4.8 | 0.00 | 0.84 | 0.84 | 91 | 1011.5 |
| 20260506162024 | 17 | 79 | 3.2 | 4.8 | 0.00 | 0.84 | 0.84 | 88 | 1011.7 |
| 20260506161024 | 18 | 23 | 1.6 | 4.8 | 0.00 | 0.84 | 0.84 | 83 | 1011.6 |
| 20260506160044 | 18 | 28 | 1.6 | 3.2 | 0.00 | 0.84 | 0.84 | 84 | 1011.5 |
| 20260506155024 | 17 | 14 | 1.6 | 4.8 | 0.00 | 0.84 | 0.84 | 85 | 1011.5 |
| 20260506154024 | 17 | 34 | 1.6 | 4.8 | 0.00 | 0.84 | 0.84 | 87 | 1011.6 |
| 20260506153024 | 17 | 38 | 3.2 | 6.4 | 0.00 | 0.84 | 0.84 | 86 | 1011.6 |
| 20260506152023 | 17 | 40 | 4.8 | 9.7 | 0.00 | 0.84 | 0.84 | 88 | 1011.6 |
| 20260506151044 | 17 | 29 | 4.8 | 9.7 | 0.00 | 0.84 | 0.84 | 91 | 1011.6 |
| 20260506150024 | 17 | 35 | 3.2 | 11.3 | 0.00 | 0.84 | 0.84 | 92 | 1011.8 |
| 20260506145124 | 17 | 28 | 3.2 | 6.4 | 0.00 | 0.84 | 0.84 | 93 | 1011.8 |
| 20260506144024 | 17 | 22 | 1.6 | 6.4 | 0.00 | 0.84 | 0.84 | 94 | 1011.7 |
| 20260506143024 | 17 | 41 | 3.2 | 11.3 | 0.00 | 0.84 | 0.84 | 95 | 1011.8 |
| 20260506142024 | 17 | 41 | 3.2 | 9.7 | 0.00 | 0.84 | 0.84 | 97 | 1011.8 |
| 20260506141023 | 16 | 21 | 3.2 | 11.3 | 0.00 | 0.84 | 0.84 | 97 | 1012.0 |
| 20260506140024 | 16 | 32 | 4.8 | 9.7 | 0.18 | 0.84 | 0.84 | 98 | 1012.0 |
| 20260506135024 | 16 | 43 | 3.2 | 9.7 | 0.20 | 0.84 | 0.84 | 99 | 1012.1 |
| 20260506134024 | 16 | 39 | 3.2 | 9.7 | 0.20 | 0.84 | 0.84 | 99 | 1012.1 |
| 20260506133044 | 15 | 33 | 3.2 | 9.7 | 0.25 | 0.84 | 0.84 | 99 | 1012.2 |
| 20260506132025 | 15 | 49 | 1.6 | 4.8 | 0.28 | 0.84 | 0.84 | 99 | 1012.2 |
| 20260506131024 | 15 | 39 | 1.6 | 6.4 | 0.28 | 0.84 | 0.84 | 99 | 1012.2 |
| 20260506130044 | 15 | 42 | 4.8 | 9.7 | 0.41 | 0.66 | 0.66 | 99 | 1012.1 |
| 20260506125044 | 15 | 20 | 3.2 | 11.3 | 0.64 | 0.64 | 0.64 | 99 | 1012.3 |
| 20260506124024 | 15 | 62 | 3.2 | 6.4 | 0.64 | 0.64 | 0.64 | 99 | 1012.2 |
| 20260506123024 | 15 | 41 | 3.2 | 6.4 | 0.58 | 0.58 | 0.58 | 98 | 1012.1 |
| 20260506122044 | 15 | 38 | 4.8 | 14.5 | 0.56 | 0.56 | 0.56 | 98 | 1011.8 |
| 20260506121024 | 16 | 51 | 4.8 | 11.3 | 0.56 | 0.56 | 0.56 | 96 | 1011.7 |
| 20260506120024 | 16 | 343 | 1.6 | 4.8 | 0.25 | 0.25 | 0.25 | 94 | 1012.4 |
| 20260506115024 | 17 | 33 | 4.8 | 11.3 | 0.00 | 0.00 | 0.00 | 89 | 1011.8 |
| 20260506114024 | 18 | 36 | 3.2 | 6.4 | 0.00 | 0.00 | 0.00 | 84 | 1011.6 |
| 20260506112524 | 20 | 53 | 3.2 | 9.7 | 0.00 | 0.00 | 0.00 | 76 | 1011.5 |
| 20260506111524 | 20 | 38 | 3.2 | 6.4 | 0.00 | 0.00 | 0.00 | 72 | 1011.4 |
| 20260506110524 | 21 | 44 | 1.6 | 4.8 | 0.00 | 0.00 | 0.00 | 70 | 1011.4 |
| 20260506105525 | 21 | 37 | 3.2 | 6.4 | 0.00 | 0.00 | 0.00 | 70 | 1011.8 |
| 20260506105024 | 21 | 27 | 3.2 | 6.4 | 0.00 | 0.00 | 0.00 | 68 | 1011.7 |
| 20260506104027 | 20 | 43 | 3.2 | 9.7 | 0.00 | 0.00 | 0.00 | 71 | 1011.8 |
| 20260506103047 | 21 | 44 | 3.2 | 11.3 | 0.00 | 0.00 | 0.00 | 70 | 1011.9 |
| 20260506102025 | 21 | 45 | 3.2 | 9.7 | 0.00 | 0.00 | 0.00 | 69 | 1011.9 |
| 20260506101026 | 21 | 23 | 3.2 | 9.7 | 0.00 | 0.00 | 0.00 | 67 | 1011.9 |
| 20260506100024 | 22 | 34 | 3.2 | 6.4 | 0.00 | 0.00 | 0.00 | 64 | 1012.0 |
| 20260506095024 | 22 | 10 | 1.6 | 4.8 | 0.00 | 0.00 | 0.00 | 66 | 1011.9 |
| 20260506094024 | 21 | 4 | 1.6 | 6.4 | 0.00 | 0.00 | 0.00 | 68 | 1011.9 |
| 20260506093024 | 21 | 16 | 1.6 | 4.8 | 0.00 | 0.00 | 0.00 | 67 | 1012.0 |
| 20260506092023 | 21 | 16 | 3.2 | 4.8 | 0.00 | 0.00 | 0.00 | 68 | 1011.9 |
| 20260506091023 | 20 | 31 | 1.6 | 6.4 | 0.00 | 0.00 | 0.00 | 72 | 1011.9 |
| 20260506090024 | 21 | 31 | 1.6 | 6.4 | 0.00 | 0.00 | 0.00 | 73 | 1011.9 |
| 20260506085044 | 21 | 58 | 3.2 | 6.4 | 0.00 | 0.00 | 0.00 | 74 | 1011.8 |
| 20260506084024 | 20 | 32 | 3.2 | 6.4 | 0.00 | 0.00 | 0.00 | 76 | 1011.9 |
| 20260506083024 | 20 | 24 | 3.2 | 6.4 | 0.00 | 0.00 | 0.00 | 77 | 1012.1 |
| 20260506082024 | 20 | 44 | 1.6 | 4.8 | 0.00 | 0.00 | 0.00 | 78 | 1012.0 |
| 20260506081024 | 19 | 27 | 1.6 | 4.8 | 0.00 | 0.00 | 0.00 | 79 | 1012.0 |
| 20260506073024 | 20 | 26 | 1.6 | 4.8 | 0.00 | 0.00 | 0.00 | 80 | 1011.9 |
| 20260506072023 | 19 | 15 | 1.6 | 4.8 | 0.00 | 0.00 | 0.00 | 82 | 1011.9 |
| 20260506071024 | 19 | 16 | 1.6 | 3.2 | 0.00 | 0.00 | 0.00 | 82 | 1011.9 |
| 20260506070104 | 18 | 25 | 1.6 | 3.2 | 0.00 | 0.00 | 0.00 | 85 | 1011.9 |
| 20260506062024 | 16 | 14 | 1.6 | 3.2 | 0.00 | 0.00 | 0.00 | 99 | 1012.0 |
| 20260506061044 | 16 | 16 | 0.0 | 3.2 | 0.00 | 0.00 | 0.00 | 99 | 1012.0 |
| 20260506051024 | 12 | 0.0 | 0.0 | 0.00 | 0.00 | 0.00 | 99 | 1011.7 | |
| 20260506045024 | 11 | 0.0 | 0.0 | 0.00 | 0.00 | 0.00 | 99 | 1011.5 | |
| 20260506044024 | 12 | 0.0 | 0.0 | 0.00 | 0.00 | 0.00 | 99 | 1011.3 | |
| 20260506043024 | 12 | 31 | 0.0 | 1.6 | 0.00 | 0.00 | 0.00 | 99 | 1011.4 |
| 20260506042044 | 12 | 26 | 0.0 | 1.6 | 0.00 | 0.00 | 0.00 | 99 | 1011.3 |
| 20260506041024 | 12 | 24 | 0.0 | 3.2 | 0.00 | 0.00 | 0.00 | 99 | 1011.2 |
| 20260506040023 | 12 | 29 | 1.6 | 3.2 | 0.00 | 0.00 | 0.00 | 99 | 1011.1 |
| 20260506035023 | 12 | 0.0 | 0.0 | 0.00 | 0.00 | 0.00 | 99 | 1010.9 | |
| 20260506034023 | 12 | 0.0 | 0.0 | 0.00 | 0.03 | 0.00 | 99 | 1010.8 | |
| 20260506033023 | 12 | 0.0 | 0.0 | 0.00 | 0.03 | 0.00 | 99 | 1010.8 | |
| 20260506032024 | 12 | 0.0 | 0.0 | 0.00 | 0.03 | 0.00 | 99 | 1010.8 | |
| 20260506031024 | 12 | 0.0 | 0.0 | 0.00 | 0.03 | 0.00 | 99 | 1010.7 | |
| 20260506030024 | 12 | 0.0 | 0.0 | 0.00 | 0.03 | 0.00 | 99 | 1010.8 | |
| 20260506025023 | 12 | 0.0 | 0.0 | 0.00 | 0.03 | 0.00 | 99 | 1010.6 | |
| 20260506024023 | 11 | 0.0 | 0.0 | 0.00 | 0.03 | 0.00 | 99 | 1010.6 | |
| 20260506023044 | 12 | 0.0 | 0.0 | 0.00 | 0.03 | 0.00 | 99 | 1010.6 | |
| 20260506022043 | 12 | 0.0 | 0.0 | 0.00 | 0.03 | 0.00 | 99 | 1010.7 | |
| 20260506021023 | 12 | 0.0 | 0.0 | 0.00 | 0.03 | 0.00 | 99 | 1010.6 | |
| 20260506020044 | 12 | 0.0 | 0.0 | 0.00 | 0.03 | 0.00 | 99 | 1010.7 | |
| 20260506015024 | 12 | 0.0 | 0.0 | 0.00 | 0.03 | 0.00 | 99 | 1011.0 | |
| 20260506014024 | 12 | 0.0 | 0.0 | 0.00 | 0.03 | 0.00 | 99 | 1010.9 | |
| 20260506013024 | 12 | 0.0 | 0.0 | 0.00 | 0.03 | 0.00 | 99 | 1011.0 | |
| 20260506012023 | 12 | 0.0 | 0.0 | 0.00 | 0.03 | 0.00 | 99 | 1010.9 | |
| 20260506011023 | 12 | 0.0 | 0.0 | 0.00 | 0.03 | 0.00 | 99 | 1011.0 | |
| 20260506010024 | 12 | 0.0 | 0.0 | 0.00 | 0.03 | 0.00 | 99 | 1011.0 | |
| 20260506005024 | 12 | 0.0 | 0.0 | 0.00 | 0.03 | 0.00 | 99 | 1011.1 | |
| 20260506004024 | 13 | 0.0 | 0.0 | 0.00 | 0.03 | 0.00 | 99 | 1011.3 | |
| 20260506003024 | 13 | 0.0 | 0.0 | 0.00 | 0.03 | 0.00 | 99 | 1011.3 | |
| 20260506002024 | 13 | 0.0 | 0.0 | 0.00 | 0.03 | 0.00 | 99 | 1011.6 | |
| 20260506001024 | 13 | 329 | 0.0 | 1.6 | 0.00 | 0.03 | 0.00 | 99 | 1011.7 |
| 20260506000023 | 13 | 0.0 | 0.0 | 0.00 | 0.03 | 0.00 | 99 | 1011.7 | |
| 20260505235044 | 13 | 15 | 0.0 | 1.6 | 0.00 | 0.03 | 0.03 | 99 | 1011.7 |
| 20260505234023 | 13 | 4 | 0.0 | 1.6 | 0.00 | 0.03 | 0.03 | 99 | 1011.7 |
| 20260505233023 | 13 | 0.0 | 0.0 | 0.00 | 0.03 | 0.03 | 99 | 1011.7 | |
| 20260505232024 | 14 | 345 | 0.0 | 1.6 | 0.00 | 0.03 | 0.03 | 99 | 1011.5 |
| 20260505231024 | 14 | 0.0 | 0.0 | 0.00 | 0.03 | 0.03 | 99 | 1011.5 | |
| 20260505230044 | 14 | 0.0 | 0.0 | 0.00 | 0.03 | 0.03 | 99 | 1011.5 | |
| 20260505225028 | 15 | 0.0 | 0.0 | 0.00 | 0.03 | 0.03 | 99 | 1011.4 | |
| 20260505224024 | 15 | 345 | 0.0 | 1.6 | 0.00 | 0.03 | 0.03 | 99 | 1011.7 |
| 20260505223023 | 15 | 0.0 | 0.0 | 0.00 | 0.03 | 0.03 | 99 | 1011.7 | |
| 20260505222024 | 15 | 0.0 | 0.0 | 0.00 | 0.03 | 0.03 | 99 | 1011.8 | |
| 20260505221024 | 15 | 328 | 0.0 | 1.6 | 0.00 | 0.03 | 0.03 | 99 | 1011.9 |
| 20260505220024 | 15 | 0.0 | 3.2 | 0.00 | 0.03 | 0.03 | 99 | 1011.9 | |
| 20260505215024 | 15 | 291 | 1.6 | 3.2 | 0.00 | 0.03 | 0.03 | 99 | 1011.9 |
| 20260505214024 | 15 | 324 | 0.0 | 3.2 | 0.00 | 0.03 | 0.03 | 99 | 1012.0 |
| 20260505213024 | 15 | 322 | 0.0 | 3.2 | 0.00 | 0.03 | 0.03 | 99 | 1011.9 |
| 20260505212024 | 15 | 294 | 1.6 | 3.2 | 0.00 | 0.03 | 0.03 | 98 | 1011.9 |
| 20260505211024 | 15 | 319 | 0.0 | 1.6 | 0.00 | 0.03 | 0.03 | 98 | 1011.8 |
| 20260505210024 | 15 | 318 | 0.0 | 3.2 | 0.00 | 0.03 | 0.03 | 97 | 1011.9 |
| 20260505205024 | 15 | 324 | 0.0 | 3.2 | 0.00 | 0.03 | 0.03 | 97 | 1011.7 |